Wetbulb
72.51 72.84 73.15 72.95 72.46 72.40 71.97 70.92 70.96 71.33 70.50 69.38 69.52 68.60 68.47 68.54 68.21 68.09 68.00 66.91 65.63 66.65 66.46 65.06 65.50 66.33 67.13 67.37 68.02 67.72 63.59 63.87 61.80 63.62 65.04 66.01 65.93 66.75 67.33 67.95 67.21 65.12 61.98
72.03 72.08 71.88 71.87 71.18 70.87 70.56 70.53 70.60 69.78 69.27 68.62 68.57 68.37 67.43 67.16 67.47 66.34 65.94 66.29 65.65 64.72 65.43 63.95 63.25 64.94 65.53 66.80 68.09 66.40 66.81 67.23 63.66 61.37 61.78 60.67 61.71 62.72 63.70 63.22 63.72 63.75 62.42
71.19 70.85 70.19 69.88 69.74 70.25 69.77 69.77 69.42 68.66 68.29 68.13 67.58 66.70 66.30 66.46 66.66 66.73 66.00 65.88 65.52 65.11 65.09 63.35 61.61 63.12 62.98 65.93 66.91 64.68 66.80 66.54 66.26 61.56 58.66 59.50 59.54 60.27 58.99 60.05 60.57 60.61 60.57
69.73 69.33 69.16 69.28 69.28 69.19 69.20 68.82 68.13 67.95 67.36 67.19 67.04 66.73 66.15 66.16 66.66 66.44 66.09 65.88 66.03 64.11 62.63 62.36 61.67 62.12 63.60 64.35 64.81 65.99 66.25 64.36 63.43 59.64 58.22 57.52 57.70 58.25 58.84 56.88 56.32 58.29 57.26
68.58 68.41 68.33 68.63 68.64 68.13 67.51 67.65 67.61 67.54 67.25 66.92 66.22 66.90 66.48 66.44 63.69 66.35 66.39 66.16 65.57 63.90 62.27 60.98 62.25 61.52 60.08 60.23 66.95 66.32 65.77 63.75 61.45 58.65 57.32 56.36 55.37 56.12 55.24 56.34 54.53 54.85 55.85
67.67 66.93 67.13 66.88 66.70 66.88 67.13 67.19 67.53 66.99 66.67 67.44 66.11 65.88 66.48 64.52 48.91 51.44 59.45 66.25 65.55 63.50 60.99 61.04 62.21 59.97 59.85 56.04 55.42 56.54 63.40 63.99 60.00 58.38 56.76 55.12 55.74 55.44 55.96 55.40 54.26 53.55 50.46
66.00 65.86 65.86 66.39 66.00 66.69 66.43 66.07 66.39 66.89 67.98 66.17 66.25 66.34 65.94 64.37 49.80 50.23 52.41 66.63 64.61 63.09 61.83 62.01 61.89 63.56 61.70 63.88 55.90 55.26 55.29 54.83 58.73 61.83 58.29 56.68 55.30 56.76 56.47 56.29 58.64 57.93 54.36
65.43 65.29 65.97 66.54 65.74 65.60 65.74 65.83 66.82 67.91 67.32 67.50 66.61 66.10 65.77 61.91 49.51 48.60 50.23 65.12 65.00 63.79 61.64 61.80 61.27 62.96 63.35 64.16 64.52 64.78 64.31 64.14 63.61 62.91 61.41 59.10 59.69 59.19 59.05 58.87 57.93 55.32 54.77
64.62 65.21 65.80 66.36 65.43 64.98 64.91 65.49 67.80 67.81 66.87 66.87 66.38 65.67 65.38 64.47 48.96 48.78 54.97 65.16 64.60 63.10 61.93 61.49 61.27 62.22 51.95 49.69 64.23 62.82 61.36 60.58 52.04 52.30 53.04 49.84 48.38 49.95 55.39 58.37 54.70 53.44 51.69
64.88 65.45 66.27 66.40 65.11 65.41 65.80 66.82 67.05 66.95 66.72 66.48 65.39 66.09 59.08 64.40 48.22 48.42 55.21 64.43 63.00 62.53 61.46 59.87 52.41 57.90 47.15 47.88 63.14 62.61 60.53 58.64 58.30 57.63 54.75 51.98 53.75 51.59 50.85 59.62 55.75 53.46 53.59
65.65 66.00 66.60 66.11 66.18 66.02 66.73 67.79 66.58 66.09 66.38 65.90 64.75 64.24 64.93 63.10 60.62 48.60 48.24 62.96 63.33 60.58 59.17 57.64 56.04 45.34 44.61 48.78 53.70 64.01 59.81 59.52 55.78 59.33 58.05 57.61 56.94 56.90 58.41 58.12 58.38 56.92 55.20
65.83 65.25 66.34 66.58 65.21 65.09 66.79 66.65 66.47 66.92 66.02 65.02 63.82 61.83 63.34 64.23 50.72 48.65 48.58 51.35 56.58 62.18 59.92 57.88 53.17 43.53 44.25 46.97 55.11 46.43 48.22 54.04 59.73 58.03 57.13 56.04 55.81 56.47 58.04 57.25 59.25 58.38 61.68
65.15 65.48 65.59 65.86 65.67 65.43 66.00 65.92 65.45 66.66 65.77 63.00 62.98 62.41 61.84 62.93 62.60 46.68 45.88 47.51 48.18 59.60 58.83 48.29 42.04 41.71 43.34 46.59 44.79 46.59 49.42 60.14 59.33 56.89 56.30 56.61 56.91 57.84 59.63 56.59 56.97 59.61 63.69
63.93 65.74 65.32 65.61 64.26 65.31 64.63 65.37 66.47 65.92 65.36 64.52 62.93 62.43 62.23 62.31 62.39 62.34 60.14 58.72 49.84 52.88 49.05 52.17 48.27 48.04 47.51 50.94 52.56 53.14 60.36 60.22 58.94 58.21 57.40 57.54 58.32 57.48 56.86 56.17 56.06 60.25 61.25
64.27 64.53 65.56 64.25 65.81 64.97 63.06 63.80 65.81 65.61 62.52 65.42 65.27 62.54 62.39 61.37 60.64 56.87 58.66 61.35 59.24 54.20 55.33 56.84 55.66 54.21 53.06 54.17 57.70 58.69 60.31 59.68 59.05 59.21 59.09 58.00 58.47 57.98 57.51 57.98 58.45 60.60 60.22
64.98 63.98 65.09 64.05 65.34 63.63 64.32 63.50 43.41 44.72 42.98 43.16 44.60 56.41 59.17 50.27 43.89 44.07 44.25 44.61 44.61 45.34 57.46 56.98 55.30 54.83 54.46 55.68 56.46 57.45 58.96 56.92 59.09 58.86 58.90 58.58 58.37 58.24 59.02 59.73 60.14 60.85 60.01
65.23 65.72 63.96 62.16 65.45 64.26 63.98 63.99 62.05 54.88 42.77 41.70 42.62 42.98 48.70 45.54 42.44 41.89 42.26 42.80 42.26 48.63 58.33 58.01 55.91 56.02 56.55 56.49 56.81 57.25 56.86 58.39 59.52 58.96 60.11 60.08 60.46 60.48 58.37 60.25 60.16 59.90 58.99
66.07 54.38 64.31 64.44 64.16 63.94 63.98 64.68 64.00 61.82 61.25 61.32 45.69 46.85 41.89 41.71 40.81 40.81 42.08 46.75 55.42 55.50 60.08 59.03 57.33 57.18 57.18 57.31 57.67 57.09 58.13 58.67 58.75 60.67 60.86 60.59 61.20 60.32 59.90 59.96 60.64 60.79 60.29
65.47 64.45 65.02 64.43 63.81 62.67 64.15 65.10 64.25 63.68 63.40 61.64 59.16 50.41 42.75 38.94 39.72 41.53 44.61 58.18 58.14 58.58 61.37 60.56 60.20 59.21 58.53 58.84 59.50 60.25 60.39 61.12 61.13 61.96 62.17 62.09 61.86 60.39 60.31 61.37 61.61 48.71 52.35
65.33 55.52 57.50 64.98 63.92 63.33 64.75 63.01 63.50 64.22 64.03 62.77 61.02 60.60 54.46 52.19 56.23 57.15 59.58 59.69 59.48 59.01 59.49 61.44 62.03 62.27 61.00 61.31 61.84 61.52 61.50 60.68 62.33 62.13 62.64 62.69 62.64 62.45 61.97 62.08 61.86 60.69 59.86
64.65 64.26 51.58 65.31 63.64 63.51 63.37 63.17 62.65 62.65 63.18 63.41 63.24 60.19 48.02 61.14 60.37 60.46 60.50 61.44 61.19 60.70 61.68 60.77 62.93 63.37 63.61 62.40 62.23 61.54 61.69 62.27 62.42 62.25 62.94 63.85 63.90 62.78 63.29 63.22 62.25 61.78 61.47
64.37 63.68 64.87 64.66 64.18 63.90 63.16 63.46 64.09 63.35 63.08 63.02 63.16 57.91 42.68 62.54 63.05 62.91 62.46 62.51 63.43 64.01 64.72 64.39 63.94 64.10 63.90 63.80 64.06 63.86 63.30 63.29 63.07 63.05 63.65 63.38 63.24 64.11 64.08 63.24 62.34 61.84 61.70
64.42 63.77 63.76 64.57 64.21 56.69 63.13 63.51 62.94 63.16 64.17 64.24 63.02 61.42 60.94 62.64 63.32 63.57 63.92 64.34 64.09 63.82 64.02 63.94 62.58 63.53 64.17 64.92 65.27 65.00 64.22 63.96 64.54 64.80 64.31 64.27 64.30 63.69 63.22 62.63 62.21 62.08 62.14
64.45 63.86 62.98 63.75 63.98 63.94 64.12 63.88 63.51 56.44 62.38 64.02 63.26 63.20 63.68 64.54 64.04 64.63 64.77 65.69 65.79 64.16 64.35 64.71 65.67 65.18 65.77 65.94 66.19 66.18 65.16 64.88 65.07 64.63 65.68 64.98 64.37 62.39 64.19 64.17 63.82 63.59 63.87
63.76 63.96 63.54 64.18 63.71 63.59 63.89 63.68 62.06 63.72 63.16 63.38 63.82 63.45 63.71 64.01 65.12 65.29 66.39 65.30 65.04 65.80 64.98 63.18 61.50 61.33 53.42 51.07 49.46 47.45 38.76 35.65 53.87 44.10 64.38 65.62 65.50 64.83 63.37 62.70 62.79 64.07 63.80
62.08 62.17 62.22 62.50 61.77 61.05 61.81 58.38 56.02 59.89 61.00 58.81 60.89 58.47 59.02 58.81 59.81 60.50 61.25 61.51 59.60 55.14 55.27 52.77 50.41 51.26 49.90 45.63 41.51 35.12 33.99 34.34 40.88 34.91 56.27 63.96 64.04 63.83 64.01 63.51 63.20 62.86 62.70
MSLP
996.01 996.62 997.26 997.88 998.70 999.17 999.60 1000.15 1000.73 1001.40 1001.81 1002.29 1002.88 1003.90 1004.25 1004.34 1004.70 1005.11 1005.18 1005.28 1006.12 1006.67 1007.02 1007.31 1007.53 1007.92 1008.05 1007.94 1008.07 1008.12 1008.16 1008.45 1009.34 1010.29 1010.74 1011.10 1011.17 1011.25 1011.47 1011.84 1012.28 1013.04 1013.87
996.05 996.79 997.64 998.31 998.94 999.55 999.98 1000.45 1001.03 1001.41 1001.81 1002.20 1002.74 1003.23 1003.57 1004.02 1004.55 1005.00 1005.14 1005.07 1005.76 1006.45 1007.01 1007.50 1007.71 1007.94 1007.89 1007.93 1007.88 1008.11 1008.38 1008.70 1009.11 1010.06 1011.28 1011.81 1012.03 1012.24 1012.31 1012.63 1013.10 1013.58 1014.19
996.15 997.15 998.10 998.66 999.30 999.79 1000.16 1000.62 1001.06 1001.54 1001.93 1002.32 1002.81 1003.14 1003.41 1003.77 1004.32 1004.79 1004.81 1005.30 1005.98 1006.48 1006.86 1007.69 1007.94 1007.91 1007.85 1007.98 1007.88 1008.08 1008.47 1008.88 1009.38 1010.17 1011.52 1012.19 1012.65 1012.84 1013.13 1013.54 1013.88 1014.32 1015.00
996.40 997.42 998.32 998.99 999.53 1000.00 1000.42 1000.81 1001.26 1001.72 1002.13 1002.51 1002.80 1002.90 1003.20 1003.70 1004.26 1004.66 1004.99 1005.49 1005.90 1006.63 1007.29 1007.65 1008.10 1008.04 1007.90 1007.97 1007.92 1008.14 1008.56 1009.07 1009.58 1010.94 1011.76 1012.40 1012.95 1013.47 1013.61 1014.01 1014.81 1015.35 1016.06
996.57 997.58 998.43 999.12 999.70 1000.22 1000.67 1001.02 1001.38 1001.76 1002.09 1002.27 1002.67 1003.28 1003.75 1003.89 1004.59 1004.84 1005.01 1005.47 1005.97 1006.87 1007.48 1007.83 1008.15 1008.20 1008.23 1008.19 1007.98 1008.06 1008.62 1009.13 1010.03 1011.15 1011.94 1012.69 1013.29 1013.72 1014.05 1014.63 1015.23 1016.12 1017.00
996.83 997.78 998.64 999.20 999.80 1000.33 1000.89 1001.44 1001.81 1001.81 1002.04 1002.49 1003.22 1003.43 1003.84 1004.17 1005.49 1005.76 1005.85 1005.65 1006.02 1006.84 1007.50 1007.85 1007.99 1008.20 1008.12 1008.25 1008.27 1008.45 1008.60 1009.01 1010.13 1011.02 1011.95 1012.63 1013.29 1013.78 1014.29 1014.68 1015.34 1016.24 1017.69
997.14 997.93 998.50 999.09 1000.06 1000.72 1001.25 1001.75 1001.75 1002.03 1002.57 1002.89 1003.26 1003.52 1003.97 1005.08 1005.95 1006.12 1006.27 1005.96 1006.35 1006.86 1007.33 1007.58 1007.74 1007.70 1007.81 1007.96 1008.57 1008.80 1008.90 1009.42 1010.33 1010.81 1011.49 1012.37 1013.19 1013.66 1014.11 1014.85 1015.37 1015.84 1017.05
997.06 997.59 998.20 998.90 1000.07 1000.78 1001.43 1001.77 1001.94 1002.40 1002.96 1003.39 1003.66 1003.69 1004.42 1005.54 1006.20 1006.37 1006.49 1006.27 1006.40 1006.82 1007.43 1007.62 1007.85 1007.85 1007.82 1007.64 1008.06 1008.54 1009.25 1009.90 1010.47 1010.85 1011.81 1012.59 1013.11 1013.82 1014.28 1014.73 1015.57 1016.63 1017.93
996.74 997.35 997.90 998.59 999.47 1000.75 1001.32 1001.85 1002.17 1002.68 1003.26 1003.65 1003.76 1004.19 1004.65 1005.57 1006.37 1006.53 1006.55 1006.23 1006.48 1006.96 1007.51 1007.73 1008.05 1008.09 1008.27 1008.36 1008.12 1008.88 1009.82 1010.77 1011.17 1011.54 1012.21 1013.04 1013.63 1014.05 1014.45 1014.93 1016.11 1016.93 1018.06
996.53 997.09 997.64 998.45 1000.01 1000.56 1001.32 1001.90 1002.54 1002.88 1003.37 1003.69 1003.96 1004.42 1005.30 1005.63 1006.53 1006.56 1006.51 1006.32 1006.67 1007.06 1007.72 1008.08 1008.36 1008.47 1008.71 1008.89 1008.76 1009.24 1010.22 1011.30 1011.93 1012.62 1013.43 1013.93 1014.17 1014.84 1015.13 1015.13 1015.89 1016.54 1017.41
996.44 997.09 998.13 999.43 1000.16 1000.81 1001.42 1002.13 1002.50 1002.82 1003.36 1003.76 1004.28 1005.01 1005.14 1005.56 1006.47 1006.75 1006.84 1006.67 1006.41 1007.31 1007.90 1008.31 1008.77 1009.05 1009.26 1009.41 1009.35 1009.60 1010.61 1011.48 1012.25 1012.79 1013.58 1014.26 1014.80 1015.20 1015.55 1015.94 1016.10 1016.27 1016.87
996.83 997.49 998.86 999.87 1000.34 1000.99 1001.55 1002.00 1002.49 1003.07 1003.63 1004.04 1004.71 1005.28 1005.48 1006.06 1006.68 1007.04 1007.08 1006.96 1006.89 1007.14 1007.85 1008.58 1009.16 1009.52 1009.80 1010.06 1010.22 1010.69 1011.30 1011.83 1012.34 1013.06 1013.71 1014.40 1014.96 1015.47 1015.75 1016.18 1016.15 1016.60 1016.64
997.38 998.08 999.34 999.99 1000.25 1001.00 1001.63 1002.19 1002.79 1003.46 1003.91 1004.10 1004.04 1004.80 1005.57 1005.99 1006.58 1007.37 1007.45 1007.56 1007.64 1007.73 1008.29 1008.86 1009.44 1009.96 1010.30 1010.61 1010.88 1011.12 1011.58 1011.91 1012.37 1013.12 1013.76 1014.37 1015.03 1015.50 1015.73 1016.36 1016.45 1016.67 1016.41
997.81 998.52 999.45 999.63 1000.44 1001.11 1001.67 1002.44 1003.12 1003.67 1004.02 1004.06 1004.03 1004.28 1005.31 1005.95 1006.39 1006.89 1007.60 1008.03 1008.38 1008.90 1009.27 1009.55 1009.92 1010.32 1010.63 1011.14 1011.62 1011.73 1011.74 1012.13 1012.56 1012.98 1013.71 1014.52 1015.01 1015.68 1015.95 1016.30 1016.57 1016.31 1015.91
997.98 998.64 999.38 999.83 1000.30 1000.94 1002.17 1003.08 1003.45 1004.14 1004.39 1004.23 1004.49 1004.47 1005.04 1005.83 1006.45 1006.35 1006.99 1007.50 1008.40 1008.97 1009.38 1009.74 1010.13 1010.70 1011.18 1011.54 1011.73 1011.85 1011.81 1012.30 1012.59 1012.98 1013.55 1014.19 1014.62 1015.28 1015.73 1016.23 1016.33 1016.10 1015.80
997.58 998.87 999.11 999.94 1000.27 1001.15 1002.03 1003.44 1004.53 1004.90 1005.00 1005.08 1004.90 1005.03 1005.31 1005.49 1006.64 1007.14 1007.63 1008.10 1008.91 1009.16 1009.26 1009.68 1010.27 1010.72 1011.13 1011.34 1011.67 1011.87 1012.09 1012.51 1012.77 1013.21 1013.62 1014.03 1014.36 1014.94 1015.32 1015.64 1015.85 1015.59 1015.32
997.27 998.08 999.24 999.63 999.20 999.87 1000.93 1002.28 1003.78 1005.37 1005.47 1005.68 1005.83 1005.66 1005.75 1006.89 1007.22 1007.82 1008.31 1008.82 1009.19 1009.17 1009.18 1009.66 1010.24 1010.55 1010.87 1011.32 1011.63 1011.91 1012.32 1012.60 1012.91 1013.17 1013.29 1013.63 1013.87 1014.34 1014.70 1014.75 1014.88 1014.99 1015.19
997.23 997.77 998.09 998.01 998.70 999.48 1000.49 1001.68 1002.66 1003.61 1004.59 1005.69 1006.78 1006.85 1007.38 1007.61 1007.97 1008.41 1008.87 1009.29 1009.62 1009.47 1009.02 1009.22 1010.01 1010.47 1010.90 1011.14 1011.41 1011.74 1012.10 1012.38 1012.65 1012.53 1012.68 1013.21 1013.22 1013.72 1014.04 1014.12 1013.94 1013.88 1013.94
997.08 997.64 997.48 997.85 998.58 999.10 1000.40 1000.91 1001.80 1003.23 1003.99 1004.84 1006.40 1007.52 1008.15 1008.38 1008.67 1008.83 1008.96 1009.04 1009.13 1009.17 1008.70 1008.83 1009.33 1009.97 1010.57 1010.91 1011.11 1011.17 1011.42 1011.43 1011.72 1011.82 1012.04 1012.40 1012.89 1013.37 1013.52 1013.20 1012.86 1013.09 1013.30
997.01 997.47 997.40 997.67 998.81 999.35 999.81 1001.04 1001.87 1002.42 1003.22 1003.93 1005.36 1006.36 1007.88 1008.49 1008.85 1008.96 1008.57 1008.58 1008.76 1008.92 1008.95 1008.78 1008.80 1009.08 1009.78 1009.91 1010.21 1010.58 1010.68 1011.01 1011.06 1011.33 1011.47 1011.93 1012.19 1012.49 1012.33 1012.17 1012.06 1012.17 1012.60
996.68 997.60 997.83 997.46 998.38 998.75 999.18 1000.53 1001.32 1001.94 1002.34 1002.78 1004.32 1005.94 1007.01 1007.43 1007.60 1007.65 1007.66 1007.64 1007.72 1008.10 1008.37 1008.75 1008.31 1008.60 1008.73 1009.17 1009.52 1009.99 1010.33 1010.47 1010.73 1010.93 1011.14 1011.28 1011.37 1011.59 1011.29 1010.84 1011.12 1011.39 1011.36
996.65 997.50 997.75 997.18 997.89 998.39 999.15 999.52 999.94 1000.76 1001.39 1002.31 1004.02 1006.16 1006.82 1006.78 1006.36 1006.46 1006.61 1006.64 1006.83 1007.03 1007.08 1007.55 1007.79 1008.03 1008.50 1008.70 1008.85 1009.21 1009.55 1009.89 1010.24 1010.48 1010.49 1010.68 1011.01 1010.93 1010.81 1010.36 1010.44 1010.64 1010.69
996.52 997.41 997.63 997.14 997.76 998.62 999.13 999.52 1000.03 1000.15 1000.67 1002.25 1003.76 1005.40 1006.38 1005.98 1005.38 1005.31 1005.38 1005.47 1006.03 1006.33 1007.04 1007.30 1007.59 1007.76 1007.93 1008.12 1008.18 1008.48 1008.70 1008.86 1009.25 1009.40 1009.48 1009.46 1009.37 1009.35 1009.51 1009.73 1009.90 1009.98 1010.01
996.52 997.25 997.75 997.51 997.87 998.70 999.00 999.31 999.83 1000.41 1000.71 1001.54 1003.18 1004.54 1004.92 1004.45 1004.31 1004.40 1004.74 1005.37 1005.79 1006.26 1006.43 1006.63 1006.79 1006.85 1007.41 1007.73 1007.65 1007.90 1008.27 1008.33 1008.41 1008.65 1009.01 1009.22 1009.31 1009.13 1009.13 1008.96 1008.99 1009.13 1009.22
997.05 997.73 997.97 998.11 998.86 999.22 999.75 1000.30 1000.97 1000.62 1001.15 1001.55 1002.58 1003.67 1004.27 1004.26 1004.65 1004.67 1005.21 1005.56 1005.84 1006.20 1006.67 1007.45 1008.14 1008.12 1009.33 1009.79 1010.44 1010.68 1010.61 1009.82 1009.12 1009.21 1008.79 1008.76 1008.90 1009.01 1008.98 1008.92 1008.78 1008.64 1008.55
999.87 1000.22 1000.44 1000.52 1001.07 1001.76 1002.05 1003.05 1003.38 1003.51 1003.58 1004.32 1004.73 1005.35 1005.84 1006.00 1006.50 1006.87 1007.01 1007.34 1008.19 1008.96 1009.20 1009.81 1010.39 1010.40 1010.71 1011.54 1012.27 1012.39 1011.89 1011.34 1010.96 1010.67 1009.74 1009.18 1008.88 1008.60 1008.29 1008.09 1008.10 1008.11 1007.99
Wind_Speed
15 15 14 13 13 13 11 12 11 11 11 11 10 9 10 9 7 7 6 7 6 6 5 2 4 6 4 5 4 4 5 5 6 3 3 4 6 7 7 9 9 9 10
15 15 14 14 14 13 12 12 12 11 10 10 10 10 9 9 8 8 7 5 9 7 7 4 4 2 5 6 5 6 3 4 8 10 4 3 4 6 7 7 6 6 9
16 15 15 15 14 13 12 12 11 10 9 9 9 9 9 9 8 10 7 5 5 5 6 5 1 4 4 6 7 6 4 3 8 8 4 2 4 3 8 8 8 10 7
16 16 15 14 13 12 11 10 10 10 10 9 9 9 7 5 4 4 6 6 5 6 6 5 3 5 4 4 7 7 6 6 8 8 6 4 3 3 6 9 9 8 8
16 16 14 13 12 12 11 11 10 10 10 10 7 4 4 5 4 5 5 6 8 8 6 5 6 6 6 7 5 6 9 7 9 8 5 5 6 3 7 7 11 10 8
15 15 13 13 13 11 9 8 7 10 8 3 5 5 5 6 9 8 3 4 6 7 5 4 4 6 7 6 1 4 9 12 11 8 7 8 7 8 8 10 12 11 5
15 14 14 13 10 11 9 9 9 7 7 5 5 6 5 9 5 3 3 1 6 7 6 4 3 3 3 8 6 4 10 9 13 11 13 9 10 11 10 12 13 12 8
14 14 13 15 13 11 9 8 10 7 5 6 5 5 8 7 4 2 2 3 6 8 6 4 4 4 6 8 10 10 10 10 10 9 10 10 11 11 10 10 9 11 10
14 13 13 13 11 13 9 7 9 9 8 7 6 8 6 7 5 3 3 3 7 9 6 5 4 4 4 3 11 11 10 9 11 13 14 13 11 12 10 11 11 12 8
14 13 11 13 12 10 8 10 8 8 8 7 8 8 6 8 5 4 7 5 7 6 6 5 6 3 5 1 7 11 11 9 12 11 9 10 8 9 8 8 11 11 9
13 12 14 11 10 9 6 10 9 9 8 8 9 6 6 6 6 6 8 6 5 6 5 3 3 8 6 5 7 9 12 12 12 11 10 8 7 6 4 6 4 9 9
14 10 13 9 8 8 9 10 9 8 7 8 10 6 5 6 7 8 8 9 6 6 7 4 4 7 8 9 8 15 15 12 10 9 8 8 8 6 5 3 8 5 3
12 12 10 9 6 8 8 8 7 7 7 9 9 8 6 4 5 8 9 7 9 6 6 7 11 10 10 10 13 15 12 8 8 8 7 7 7 6 8 4 3 5 3
12 10 9 10 8 8 6 7 4 5 5 7 6 8 7 6 6 6 6 7 10 9 10 6 9 10 9 8 8 8 6 7 7 8 9 7 9 8 7 4 2 5 5
11 12 8 7 8 7 10 4 5 5 0 5 4 4 8 7 4 6 6 7 8 8 10 7 6 5 5 5 5 3 6 8 8 7 8 8 8 10 8 6 5 7 6
12 10 9 7 7 7 8 8 15 12 10 11 10 6 8 14 13 13 14 16 15 11 7 7 7 6 7 6 5 5 7 6 7 7 8 8 9 8 8 10 9 9 8
11 12 8 8 11 9 10 8 9 6 14 13 12 11 11 12 13 12 14 15 10 7 6 8 7 6 7 6 6 6 7 6 8 7 10 9 10 9 9 9 8 9 8
11 10 9 8 8 8 8 8 5 7 8 7 12 10 10 12 12 14 14 11 4 2 6 8 9 6 6 6 7 6 7 7 7 8 10 9 9 7 8 8 10 9 9
12 10 9 9 9 7 10 9 8 7 7 8 8 7 8 11 9 11 11 7 5 5 4 6 10 8 7 7 9 10 11 10 9 8 9 10 9 7 9 10 10 7 7
11 11 8 10 8 7 12 8 8 9 9 10 8 9 7 6 6 7 6 7 6 5 5 3 6 9 9 10 8 8 8 7 8 7 8 9 9 8 12 12 10 10 11
10 9 4 8 9 9 6 13 9 6 9 10 9 10 11 9 9 8 5 5 8 9 9 7 6 7 8 8 7 5 5 6 6 7 8 9 10 10 11 11 11 11 11
10 10 9 9 9 9 9 5 9 11 9 9 11 10 12 8 9 9 9 8 8 7 8 10 9 7 8 7 7 8 9 9 9 9 10 8 10 12 13 11 10 10 11
11 13 10 7 8 10 8 10 7 5 11 14 12 11 10 9 7 8 6 7 7 8 11 8 5 5 6 7 7 9 10 10 10 10 10 10 11 10 10 11 12 12 11
10 13 11 7 10 9 7 8 9 6 7 13 12 10 7 6 8 9 8 8 6 2 1 1 2 4 10 9 8 9 8 6 6 6 11 9 10 10 11 11 11 14 13
12 10 10 7 8 5 5 8 9 10 6 9 12 12 10 5 9 8 7 5 4 4 5 14 13 17 22 20 19 18 15 15 12 10 5 8 12 12 9 7 10 14 15
13 12 11 12 12 11 12 11 13 12 14 14 14 14 13 14 12 12 9 14 14 13 14 13 17 23 21 19 19 16 15 16 14 11 7 9 11 11 11 13 18 13 15
Wind_Direction
156 157 149 146 143 148 150 141 137 150 149 166 165 167 193 194 185 175 250 169 170 197 202 213 215 222 215 226 195 220 159 168 124 115 91 99 80 118 118 108 139 128 134
154 146 148 143 144 144 147 145 148 154 166 174 174 189 183 181 176 189 214 177 192 195 193 197 248 203 232 211 205 182 208 187 162 143 104 85 76 71 79 81 97 112 134
147 141 143 145 146 148 148 146 157 155 169 166 174 178 183 183 157 210 211 201 207 202 170 180 201 284 215 211 204 176 187 170 143 135 123 83 76 87 85 79 86 94 102
141 144 145 146 146 148 145 150 149 161 161 165 178 182 178 142 182 148 201 193 167 120 125 151 228 253 255 228 180 180 157 147 130 128 114 96 91 84 101 108 92 93 98
145 144 145 143 146 147 151 154 159 159 168 178 140 100 177 178 71 43 132 168 168 152 154 166 208 234 269 280 193 167 164 149 134 129 126 118 124 125 117 115 101 99 83
143 141 146 151 152 145 142 123 176 168 155 119 151 155 148 86 62 57 13 184 171 170 166 188 184 224 232 222 346 324 166 140 144 142 142 140 129 122 132 130 126 126 107
147 149 151 147 133 142 155 155 169 156 161 146 155 138 152 98 72 43 21 103 147 168 167 190 167 194 227 169 109 139 97 96 148 154 148 146 142 149 139 142 144 137 125
151 152 154 143 162 145 155 176 163 142 149 137 151 157 103 89 103 117 357 258 164 145 150 148 151 189 188 187 162 151 143 138 146 139 140 146 143 146 144 130 114 100 104
156 157 162 154 135 143 164 165 151 151 158 155 167 99 120 106 92 58 325 185 139 138 135 139 142 148 178 291 155 143 100 83 73 106 118 121 119 125 131 123 126 132 132
157 162 157 125 147 155 161 145 156 159 156 173 115 103 100 118 104 17 350 127 124 121 124 126 115 132 163 27 158 132 119 116 113 104 103 101 104 116 145 135 146 141 141
159 150 115 126 144 148 155 145 166 171 152 133 117 118 127 114 114 44 20 333 127 122 134 127 115 132 129 93 114 131 120 119 113 116 121 127 125 118 98 138 161 148 149
122 154 128 142 154 147 165 157 175 144 147 143 123 131 117 117 50 73 37 33 49 142 137 127 119 133 129 95 113 120 121 128 131 129 130 131 136 145 139 121 143 138 254
143 124 134 161 149 138 161 162 157 162 159 166 171 133 145 145 118 91 70 60 36 105 102 99 108 107 99 87 125 127 138 136 136 136 135 137 140 153 125 106 82 234 167
128 141 149 169 136 155 159 150 144 166 185 192 175 155 149 163 140 149 137 110 101 92 104 92 96 87 79 111 132 153 136 132 141 138 145 151 129 143 146 146 184 222 206
174 127 162 124 169 107 61 67 140 92 44 199 167 191 158 169 156 113 128 140 128 114 119 117 107 103 112 121 141 199 131 141 148 144 133 150 146 156 152 170 198 222 228
160 139 154 159 162 126 140 107 52 74 74 59 47 64 60 99 105 95 102 107 124 151 128 122 118 125 136 138 132 125 135 142 137 146 150 151 155 163 168 178 202 213 217
177 129 153 182 186 152 147 154 138 80 70 56 40 48 86 115 107 113 120 126 140 154 133 126 124 131 134 135 138 137 145 145 148 167 162 179 167 182 180 190 197 200 201
176 142 172 167 144 162 130 126 133 149 152 135 57 63 72 107 113 121 124 117 131 243 148 146 144 145 146 144 150 153 164 164 178 191 171 182 185 180 189 203 206 211 214
153 172 200 150 154 156 131 155 155 140 138 132 127 92 73 69 94 134 151 144 152 167 185 160 151 154 156 170 174 178 179 187 189 190 178 180 173 182 206 216 217 212 223
168 184 227 132 138 164 143 141 146 155 162 143 154 142 136 133 144 164 184 164 160 165 193 224 161 160 168 187 179 196 188 181 175 179 181 187 188 205 210 215 223 210 212
162 176 261 153 165 150 173 151 160 162 185 137 151 137 151 168 161 169 177 175 178 174 180 197 204 173 179 179 161 165 164 182 182 201 200 201 193 211 236 229 213 233 252
160 166 206 183 162 154 146 155 154 161 151 126 107 140 169 209 168 175 174 191 184 198 172 182 186 194 172 189 188 188 187 194 194 201 214 206 212 213 224 233 238 241 246
165 160 218 187 158 115 154 152 157 162 135 131 126 146 180 212 209 171 185 177 176 181 185 181 188 191 191 204 199 200 205 207 202 217 226 228 224 221 225 231 238 241 247
153 159 201 203 147 161 188 159 136 145 154 129 129 150 189 219 175 146 165 161 166 164 65 143 265 192 168 187 191 202 210 214 207 221 227 232 245 257 256 253 243 241 245
155 174 187 154 146 192 127 50 35 148 162 146 137 151 174 186 71 60 57 46 60 52 43 42 30 45 56 47 35 26 4 4 1 352 302 237 231 245 253 256 246 248 251
59 58 56 53 63 63 67 57 54 54 64 56 60 51 45 46 41 46 35 37 57 65 64 56 47 41 47 41 31 24 15 13 8 352 330 289 285 282 272 260 259 262 266